Weather History for Spencer, IA

Change the Weather History Date:

Tuesday, February 19, 2013

  Actual Average Record
Temperature  
Mean Temperature 6 °F -  
Max Temperature 12 °F 33 °F 58 °F (1981)
Min Temperature -2 °F 12 °F -16 °F (2008)
Degree Days  
Heating Degree Days 59    
Moisture  
Dew Point -3 °F    
Average Humidity 66    
Maximum Humidity 77    
Minimum Humidity 54    
Precipitation  
Precipitation 0.00 in - - ()
Sea Level Pressure  
Sea Level Pressure 30.21 in    
Wind  
Wind Speed 21 mph (NW)    
Max Wind Speed 25 mph    
Max Gust Speed 36 mph    
Visibility 10 miles    
Events Snow    
Averages and records for this station are not official NWS values.
T = Trace of Precipitation, MM = Missing Value Source: NWS Daily Summary

Daily Weather History Graph

Daily Weather History Graph

Search for Another Location

Airport:

Trip Planner

Search our weather history database for the weather conditions in past years. The results will help you decide how hot, cold, wet, or windy it might be!

Date:

Astronomy

Feb. 19, 2013 Rise Set
Actual Time 7:12 AM CST 5:57 PM CST
Civil Twilight 6:43 AM CST 6:26 PM CST
Nautical Twilight 6:10 AM CST 6:59 PM CST
Astronomical Twilight 5:37 AM CST 7:32 PM CST
Moon 12:24 PM CST (2/19) 2:49 AM CST (2/19)
Length of Visible Light 11h 43m
Length of Day
10h 45m
Waxing Gibbous, 67% of the Moon is Illuminated
Feb 19
Waxing Gibbous
Feb 25
Full
Mar 4
Last Quarter
Mar 11
New
Mar 19
First Quarter

Hourly Weather History & Observations

Time (CST) Temp. Windchill Dew Point Humidity Pressure Visibility Wind Dir Wind Speed Gust Speed Precip Events Conditions
12:05 AM 8.6 °F -12.7 °F -0.4 °F 67% 29.96 in 9.0 mi NW 25.3 mph 34.5 mph 0.00 in   Overcast
12:33 AM 6.8 °F -14.3 °F -0.4 °F 72% 29.97 in 10.0 mi NW 23.0 mph 35.7 mph 0.00 in   Scattered Clouds
12:53 AM 6.1 °F -13.3 °F -0.9 °F 73% 30.05 in 10.0 mi NW 18.4 mph 32.2 mph 0.00 in   Partly Cloudy
1:06 AM 6.8 °F -11.3 °F -0.4 °F 72% 29.98 in 6.0 mi NW 16.1 mph 25.3 mph N/A   Haze
1:53 AM 8.1 °F -12.2 °F 1.0 °F 73% 30.06 in 10.0 mi NW 21.9 mph 33.4 mph 0.00 in   Mostly Cloudy
2:08 AM 8.6 °F -11.4 °F -0.4 °F 67% 29.99 in 10.0 mi NW 21.9 mph 32.2 mph N/A   Mostly Cloudy
2:53 AM 7.0 °F -14.0 °F 1.0 °F 77% 30.09 in 6.0 mi NNW 23.0 mph 28.8 mph N/A Snow Blowing Snow
3:17 AM 6.8 °F -12.4 °F -0.4 °F 72% 30.02 in 9.0 mi NNW 18.4 mph - N/A   Overcast
3:53 AM 9.0 °F -11.8 °F -0.0 °F 67% 30.10 in 10.0 mi NW 24.2 mph 35.7 mph N/A   Overcast
4:53 AM 8.1 °F -12.6 °F -0.9 °F 67% 30.12 in 10.0 mi NW 23.0 mph 35.7 mph N/A   Overcast
5:53 AM 7.0 °F -13.6 °F -0.9 °F 70% 30.15 in 10.0 mi NW 21.9 mph 33.4 mph N/A   Overcast
6:28 AM 6.8 °F -13.4 °F -2.2 °F 67% 30.08 in 10.0 mi NW 20.7 mph 31.1 mph N/A   Scattered Clouds
6:53 AM 6.1 °F -14.8 °F -2.0 °F 69% 30.18 in 10.0 mi NW 21.9 mph 32.2 mph N/A   Clear
7:53 AM 6.1 °F -14.8 °F -2.9 °F 67% 30.22 in 10.0 mi NW 21.9 mph 29.9 mph N/A   Mostly Cloudy
8:53 AM 3.9 °F -18.1 °F -6.0 °F 64% 30.26 in 10.0 mi NW 23.0 mph 32.2 mph N/A   Clear
9:53 AM 5.0 °F -14.7 °F -6.0 °F 61% 30.28 in 10.0 mi NW 18.4 mph 27.6 mph N/A   Clear
10:23 AM 6.8 °F -11.8 °F -5.8 °F 56% 30.20 in 10.0 mi NW 17.3 mph 32.2 mph N/A   Mostly Cloudy
10:35 AM 5.0 °F -17.1 °F -5.8 °F 61% 30.21 in 10.0 mi NNW 24.2 mph 33.4 mph N/A   Scattered Clouds
10:53 AM 6.1 °F -14.3 °F -5.1 °F 60% 30.30 in 10.0 mi NW 20.7 mph 26.5 mph N/A   Scattered Clouds
12:53 PM 10.0 °F -7.6 °F -2.0 °F 58% 30.32 in 10.0 mi NW 17.3 mph 29.9 mph N/A   Clear
1:53 PM 12.0 °F -6.5 °F -0.9 °F 56% 30.32 in 10.0 mi NW 20.7 mph 29.9 mph N/A   Clear
2:53 PM 12.9 °F -5.7 °F -0.9 °F 54% 30.32 in 10.0 mi NW 21.9 mph 29.9 mph N/A   Clear
3:53 PM 12.0 °F -6.0 °F -0.9 °F 56% 30.33 in 10.0 mi NW 19.6 mph 29.9 mph N/A   Clear
4:53 PM 10.9 °F -7.5 °F -0.9 °F 59% 30.35 in 10.0 mi WNW 19.6 mph 24.2 mph N/A   Clear
6:53 PM 7.0 °F -9.1 °F -2.0 °F 67% 30.36 in 10.0 mi NNW 12.7 mph - N/A   Clear
7:53 PM 5.0 °F -14.7 °F -4.0 °F 66% 30.38 in 10.0 mi NNW 18.4 mph - N/A   Clear
8:53 PM 3.0 °F -15.5 °F -5.1 °F 69% 30.41 in 10.0 mi North 15.0 mph 19.6 mph N/A   Clear
9:53 PM 1.9 °F -15.5 °F -7.1 °F 66% 30.43 in 10.0 mi North 12.7 mph - N/A   Clear
10:53 PM -0.0 °F -18.0 °F -8.0 °F 69% 30.45 in 10.0 mi North 12.7 mph - N/A   Clear
11:53 PM -2.0 °F -19.6 °F -9.0 °F 72% 30.48 in 10.0 mi North 11.5 mph - N/A   Clear